This is the latest recevied weather packets stored in our database for station/object CE2KVL-1. If no packets are shown the sender has not sent any weather packets the latest 10 day(s).
| Time | Temp. | Humidity | Pressure | Rain* | Wind** | Luminosity | Snow |
|---|---|---|---|---|---|---|---|
| 1777569778 | 20.56° C | 56% | 1015 hPa | - | - | - | - |
| 1777569479 | 20° C | 59% | 1016.1 hPa | - | - | - | - |
| 1777569178 | 20° C | 58% | 1016.5 hPa | - | - | - | - |
| 1777568878 | 20.56° C | 58% | 1015.9 hPa | - | - | - | - |
| 1777568578 | 20° C | 56% | 1016.4 hPa | - | - | - | - |
| 1777568278 | 20.56° C | 57% | 1015.8 hPa | - | - | - | - |
| 1777567978 | 20° C | 59% | 1016.5 hPa | - | - | - | - |
| 1777567678 | 20° C | 59% | 1016.2 hPa | - | - | - | - |
| 1777567378 | 20° C | 59% | 1016.6 hPa | - | - | - | - |
| 1777567079 | 20° C | 58% | 1016 hPa | - | - | - | - |
| 1777566778 | 20° C | 60% | 1017.1 hPa | - | - | - | - |
| 1777566478 | 20° C | 59% | 1016.3 hPa | - | - | - | - |
| 1777566178 | 20° C | 60% | 1015.9 hPa | - | - | - | - |
| 1777565878 | 19.44° C | 60% | 1016.2 hPa | - | - | - | - |
| 1777565578 | 19.44° C | 62% | 1016.7 hPa | - | - | - | - |
| 1777565278 | 19.44° C | 61% | 1017 hPa | - | - | - | - |
| 1777564978 | 19.44° C | 61% | 1016.8 hPa | - | - | - | - |
| 1777564678 | 19.44° C | 60% | 1016.7 hPa | - | - | - | - |
| 1777564378 | 18.89° C | 61% | 1016.4 hPa | - | - | - | - |
| 1777564078 | 18.89° C | 61% | 1017 hPa | - | - | - | - |
| 1777563778 | 18.89° C | 62% | 1017.2 hPa | - | - | - | - |
| 1777563478 | 18.89° C | 61% | 1017.1 hPa | - | - | - | - |
| 1777563178 | 18.89° C | 62% | 1016.8 hPa | - | - | - | - |
| 1777562878 | 18.33° C | 64% | 1017.6 hPa | - | - | - | - |
| 1777562578 | 18.33° C | 62% | 1017.4 hPa | - | - | - | - |
* Rain since midnight (hover to see other rain measurements)
** Current wind speed in m/s (hover to see current wind gust speed)